Stations météo

réclame
Mon MeteoGroup
Girona/Costa Brava, Espagne (8184): Température de l'air & dewpoint: 15.01.2018 14:00:00 - 21.01.2018 14:00:00 (CET)Girona/Costa Brava, Espagne (8184): Vitesse du vent: 15.01.2018 14:00:00 - 21.01.2018 14:00:00 (CET)Girona/Costa Brava, Espagne (8184): Direction du vent: 15.01.2018 14:00:00 - 21.01.2018 14:00:00 (CET)Girona/Costa Brava, Espagne (8184): reduced air pressure: 15.01.2018 14:00:00 - 21.01.2018 14:00:00 (CET)Girona/Costa Brava, Espagne (8184): visibility: 15.01.2018 14:00:00 - 21.01.2018 14:00:00 (CET)
Date & Time tt [°C] td [°C] ff [km/h] ff [knt] dd ppp [hPa] vv [km]
21.01.2018 14:00:00 - - - - - - -
21.01.2018 13:00:00 16,9 8,6 4 2 WSW 1017,8 -
21.01.2018 12:00:00 17,4 7,6 5 3 SSE 1017,9 -
21.01.2018 11:00:00 15,0 8,7 4 2 W 1017,8 -
21.01.2018 10:00:00 10,7 6,9 2 1 W 1017,9 40
21.01.2018 09:00:00 9,5 6,6 2 1 SE 1017,5 -
21.01.2018 08:00:00 7,7 5,2 0 0 N 1016,9 -
21.01.2018 07:00:00 7,9 5,4 4 2 W 1016,4 20
21.01.2018 06:00:00 8,6 6,0 4 2 S 1016,0 -
21.01.2018 05:00:00 8,7 6,1 9 5 SSW 1015,8 -
21.01.2018 04:00:00 8,6 6,3 0 0 N 1015,9 -
21.01.2018 03:00:00 8,0 6,1 4 2 WSW 1015,5 -
21.01.2018 02:00:00 7,9 6,0 4 2 E 1015,3 -
21.01.2018 01:00:00 8,1 6,2 4 2 SW 1015,5 -
21.01.2018 00:00:00 8,5 6,0 2 1 WNW 1015,6 -
20.01.2018 23:00:00 9,4 6,7 4 2 W 1015,6 -
20.01.2018 22:00:00 9,7 7,0 0 0 N 1016,0 20
20.01.2018 21:00:00 9,9 6,8 0 0 N 1015,7 -
20.01.2018 20:00:00 10,3 6,8 0 0 N 1015,8 -
20.01.2018 19:00:00 11,1 6,5 9 5 SSW 1015,7 30
20.01.2018 18:00:00 11,5 6,7 4 2 NNE 1016,1 -
20.01.2018 17:00:00 12,7 6,5 8 4 S 1015,6 -
20.01.2018 16:00:00 14,1 5,4 4 2 SW 1015,1 30
20.01.2018 15:00:00 13,5 5,3 5 3 NNE 1016,3 -
20.01.2018 14:00:00 14,9 4,9 8 4 SSW 1016,3 -
20.01.2018 13:00:00 13,4 5,0 13 7 SSW 1017,8 30
20.01.2018 12:00:00 11,2 7,3 8 4 SSW 1019,3 -
20.01.2018 11:00:00 8,7 6,2 0 0 N 1020,6 -
20.01.2018 10:00:00 5,7 5,1 0 0 N 1021,2 17
20.01.2018 09:00:00 3,7 3,3 4 2 SSW 1021,3 -
20.01.2018 08:00:00 2,9 2,3 0 0 N 1021,5 -
20.01.2018 07:00:00 3,8 3,1 0 0 N 1021,0 20
20.01.2018 06:00:00 4,7 4,1 0 0 N 1021,4 -
20.01.2018 05:00:00 4,4 3,5 0 0 N 1020,5 -
20.01.2018 04:00:00 4,4 3,8 0 0 N 1021,2 20
20.01.2018 03:00:00 3,2 2,5 0 0 N 1021,1 -
20.01.2018 02:00:00 4,4 3,4 0 0 N 1020,8 -
20.01.2018 01:00:00 5,2 4,2 4 2 N 1020,6 -
20.01.2018 00:00:00 6,7 4,5 5 3 WNW 1020,5 -
19.01.2018 23:00:00 7,6 5,7 5 3 SW 1020,1 -
19.01.2018 22:00:00 8,3 5,9 5 3 ENE 1020,0 20
19.01.2018 21:00:00 9,1 5,6 4 2 WNW 1019,7 -
19.01.2018 20:00:00 8,5 5,6 4 2 W 1019,2 -
19.01.2018 19:00:00 10,0 6,7 4 2 W 1018,8 40
19.01.2018 18:00:00 10,2 6,5 0 0 N 1018,3 -
19.01.2018 17:00:00 12,2 7,2 4 2 SW 1017,3 -
19.01.2018 16:00:00 12,1 6,4 0 0 N 1017,3 40
19.01.2018 15:00:00 12,5 6,2 0 0 N 1017,0 -
19.01.2018 14:00:00 11,4 5,8 5 3 NE 1016,9 -
19.01.2018 13:00:00 9,8 5,4 0 0 N 1017,5 60
19.01.2018 12:00:00 7,6 5,3 4 2 NE 1018,6 -
19.01.2018 11:00:00 4,7 3,5 0 0 N 1018,9 -
19.01.2018 10:00:00 2,3 1,7 0 0 N 1018,9 60
19.01.2018 09:00:00 0,8 0,4 0 0 N 1018,5 -
19.01.2018 08:00:00 0,1 -0,3 0 0 N 1018,4 -
19.01.2018 07:00:00 0,7 0,3 4 2 ENE 1018,2 9
19.01.2018 06:00:00 2,5 2,1 4 2 NW 1017,8 -
19.01.2018 05:00:00 0,9 0,5 4 2 WSW 1018,2 -
19.01.2018 04:00:00 1,9 1,4 0 0 N 1018,3 15
19.01.2018 03:00:00 2,3 2,0 4 2 NE 1018,8 -
19.01.2018 02:00:00 2,3 1,9 0 0 N 1019,5 -
19.01.2018 01:00:00 3,3 2,6 2 1 S 1020,1 15
19.01.2018 00:00:00 2,6 1,7 0 0 N 1020,6 -
18.01.2018 23:00:00 3,8 2,8 0 0 N 1020,4 -
18.01.2018 22:00:00 5,2 3,4 0 0 N 1020,0 15
18.01.2018 21:00:00 5,5 4,0 0 0 N 1019,9 -
18.01.2018 20:00:00 7,1 4,0 0 0 N 1020,0 -
18.01.2018 19:00:00 9,8 5,6 0 0 N 1019,8 55
18.01.2018 18:00:00 11,7 5,5 0 0 N 1019,6 -
18.01.2018 17:00:00 14,5 6,2 5 3 S 1019,2 -
18.01.2018 16:00:00 15,8 6,3 4 2 SSW 1019,3 -
18.01.2018 15:00:00 15,3 6,8 4 2 S 1019,6 -
18.01.2018 14:00:00 14,4 7,5 11 6 SSW 1020,5 -
18.01.2018 13:00:00 14,0 7,8 4 2 S 1022,2 12
18.01.2018 12:00:00 11,7 6,7 4 2 NNE 1023,4 -
18.01.2018 11:00:00 8,9 5,4 11 6 NE 1024,5 -
18.01.2018 10:00:00 - - - - - - -
18.01.2018 09:00:00 6,6 5,2 0 0 N 1024,4 -
18.01.2018 08:00:00 6,4 4,4 0 0 N 1024,1 -
18.01.2018 07:00:00 5,3 4,1 0 0 N 1024,0 -
18.01.2018 06:00:00 5,3 3,9 4 2 W 1023,9 -
18.01.2018 05:00:00 4,8 3,3 0 0 N 1024,2 -
18.01.2018 04:00:00 5,9 4,5 0 0 N 1024,5 -
18.01.2018 03:00:00 5,3 4,3 2 1 NE 1024,9 -
18.01.2018 02:00:00 5,0 4,0 0 0 N 1025,0 -
18.01.2018 01:00:00 6,3 4,5 4 2 WNW 1025,4 -
18.01.2018 00:00:00 6,7 3,9 0 0 N 1025,7 -
17.01.2018 23:00:00 5,9 4,6 2 1 N 1025,3 -
17.01.2018 22:00:00 8,1 6,7 2 1 N 1024,6 -
17.01.2018 21:00:00 9,0 6,4 0 0 N 1024,1 -
17.01.2018 20:00:00 10,7 5,9 4 2 S 1023,3 -
17.01.2018 19:00:00 11,9 6,6 8 4 SSE 1022,3 -
17.01.2018 18:00:00 12,4 7,7 9 5 S 1021,5 -
17.01.2018 17:00:00 13,5 8,4 15 8 SSW 1020,6 -
17.01.2018 16:00:00 14,4 9,2 18 10 S 1019,8 -
17.01.2018 15:00:00 13,8 5,6 8 4 SE 1018,9 -
17.01.2018 14:00:00 14,2 9,2 15 8 SSW 1018,8 -
17.01.2018 13:00:00 14,3 8,4 11 6 SW 1018,8 -
17.01.2018 12:00:00 13,2 6,9 8 4 S 1019,1 -
17.01.2018 11:00:00 11,6 7,0 4 2 S 1018,8 -
17.01.2018 10:00:00 8,8 5,9 0 0 N 1017,5 -
17.01.2018 09:00:00 5,4 4,2 0 0 N 1017,1 -
17.01.2018 08:00:00 4,1 2,4 0 0 N 1015,9 -
17.01.2018 07:00:00 4,7 3,0 2 1 ENE 1014,8 25
17.01.2018 06:00:00 10,8 5,6 8 4 WNW 1013,7 -
17.01.2018 05:00:00 10,9 6,2 9 5 NNW 1013,7 -
17.01.2018 04:00:00 4,7 3,7 0 0 N 1014,1 -
17.01.2018 03:00:00 6,2 4,9 0 0 N 1014,2 -
17.01.2018 02:00:00 6,4 4,6 0 0 N 1014,4 -
17.01.2018 01:00:00 11,8 7,1 11 6 NW 1015,0 -
17.01.2018 00:00:00 9,7 7,4 8 4 NW 1015,4 -
16.01.2018 23:00:00 6,4 4,2 0 0 N 1015,9 -
16.01.2018 22:00:00 8,8 5,5 5 3 SW 1016,4 30
16.01.2018 21:00:00 8,1 4,7 0 0 N 1016,6 -
16.01.2018 20:00:00 10,2 5,0 4 2 WSW 1016,7 -
16.01.2018 19:00:00 10,3 4,3 8 4 W 1016,9 30
16.01.2018 18:00:00 12,9 5,1 4 2 WNW 1017,0 -
16.01.2018 17:00:00 17,2 5,0 8 4 S 1016,8 -
16.01.2018 16:00:00 18,7 3,3 2 1 SSW 1017,2 60
16.01.2018 15:00:00 18,3 2,3 5 3 S 1017,2 -
16.01.2018 14:00:00 18,1 2,0 0 0 N 1017,5 -
16.01.2018 13:00:00 16,4 3,4 0 0 N 1018,3 60
16.01.2018 12:00:00 12,8 5,2 2 1 WSW 1019,2 -
16.01.2018 11:00:00 9,7 4,3 4 2 SSW 1019,9 -
16.01.2018 10:00:00 7,0 3,3 0 0 N 1019,7 60
16.01.2018 09:00:00 3,2 1,7 2 1 WSW 1019,0 -
16.01.2018 08:00:00 2,3 0,7 0 0 N 1019,3 -
16.01.2018 07:00:00 2,9 1,5 0 0 N 1018,8 25
16.01.2018 06:00:00 3,7 1,6 0 0 N 1018,5 -
16.01.2018 05:00:00 4,0 2,0 0 0 N 1019,0 -
16.01.2018 04:00:00 5,6 2,6 0 0 N 1019,4 -
16.01.2018 03:00:00 4,9 2,6 5 3 SSE 1019,7 -
16.01.2018 02:00:00 4,9 2,3 0 0 N 1020,5 -
16.01.2018 01:00:00 6,0 2,4 0 0 N 1021,3 -
16.01.2018 00:00:00 7,3 2,6 5 3 W 1021,2 -
15.01.2018 23:00:00 7,4 2,3 8 4 WNW 1021,6 -
15.01.2018 22:00:00 8,3 2,1 13 7 W 1021,0 20
15.01.2018 21:00:00 8,2 1,9 16 9 NW 1021,2 -
15.01.2018 20:00:00 7,8 2,3 9 5 NW 1020,9 -
15.01.2018 19:00:00 8,5 2,1 11 6 NW 1021,1 30
15.01.2018 18:00:00 9,0 2,5 8 4 NW 1021,0 -
15.01.2018 17:00:00 10,7 4,9 16 9 S 1020,8 -
15.01.2018 16:00:00 13,6 4,2 16 9 SW 1020,9 30
15.01.2018 15:00:00 13,6 4,2 18 10 SW 1020,7 -
15.01.2018 14:00:00 13,4 4,5 18 10 SW 1021,3 -

tt = Température de l'air
td = dewpoint
ff = Vitesse du vent
dd = Direction du vent
ppp = reduced air pressure
vv = visibility

stations d'obs. à proximité